2025-226C

Last updated on Mon Oct 20 2025 00:02:08 GMT+0000 (Coordinated Universal Time)

1 65940U 25226C 25292.35140435 .00019386 00000+0 11461-2 0 9997 2 65940 97.6597 6.4950 0014039 252.1858 107.7841 15.11432537 1248
UTC large
Height (km)
Speed (km/s)
/
Latitude / Longitude
Inclination (degrees)
Orbital Period (minutes)
Azimuth
Elevation
Range (km)
Doppler Factor

Next 0 passes for location: London (51.5072 / 0.1276)

Sorry there are no passes over London.